Total_Precipitation_Accumulation
5.26 7.51 5.14 4.03 4.24 3.28 3.33 2.37 2.15 1.89 1.39 0.82 0.43 0.40 0.55 0.31 0.20 0.17 0.13 0.12 0.17 0.25 0.19 0.15 0.08 0.03 0.01 0.01 0.04 0.01 0.05 0.14
6.73 6.72 5.23 3.51 3.42 3.97 3.24 3.43 2.81 2.04 1.61 1.32 0.46 0.47 0.38 0.37 0.22 0.18 0.10 0.07 0.10 0.12 0.21 0.24 0.26 0.18 0.03 0.00 0.04 0.01 0.01 0.07
5.84 7.31 6.11 3.64 2.51 3.42 2.96 3.65 3.19 2.04 1.58 2.07 0.81 0.39 0.38 0.30 0.14 0.12 0.13 0.07 0.07 0.15 0.37 0.32 0.28 0.24 0.12 0.00 0.03 0.01 0.00 0.01
3.33 5.34 6.93 4.40 2.98 2.10 2.21 2.95 4.64 2.34 1.57 1.78 1.44 0.56 0.45 0.28 0.19 0.19 0.20 0.16 0.21 0.49 0.55 0.40 0.20 0.11 0.09 0.01 0.01 0.01 0.00 0.00
1.47 2.49 4.22 3.72 3.11 2.58 2.23 2.41 4.16 3.48 1.68 1.24 1.56 0.67 0.66 0.48 0.41 0.44 0.42 0.38 0.45 0.47 0.57 0.58 0.45 0.23 0.13 0.09 0.04 0.01 0.00 0.00
1.12 0.87 1.90 1.99 1.77 2.09 1.98 1.37 2.00 3.75 1.89 1.44 1.18 1.18 0.71 0.47 0.28 0.32 0.29 0.24 0.27 0.25 0.44 0.47 0.35 0.33 0.29 0.16 0.08 0.04 0.01 0.01
1.07 0.80 0.97 1.54 1.67 1.75 1.47 0.80 1.10 2.59 2.23 1.63 1.00 1.19 0.97 0.66 0.47 0.24 0.17 0.20 0.23 0.13 0.14 0.19 0.18 0.21 0.16 0.12 0.07 0.06 0.03 0.01
0.60 0.77 0.65 0.94 1.51 1.21 1.32 0.84 0.87 1.85 2.32 1.67 1.11 0.82 0.82 0.45 0.35 0.35 0.40 0.36 0.24 0.19 0.19 0.15 0.21 0.42 0.33 0.15 0.06 0.05 0.03 0.03
0.46 0.50 0.63 1.03 1.29 1.04 0.99 0.84 0.66 1.11 1.95 1.68 1.65 0.94 0.71 0.47 0.32 0.27 0.28 0.35 0.49 0.49 0.41 0.27 0.20 0.24 0.48 0.26 0.16 0.09 0.06 0.05
0.31 0.54 0.83 0.94 1.07 0.97 1.01 0.82 0.68 1.01 1.54 1.54 1.59 1.50 0.59 0.51 0.36 0.21 0.20 0.35 0.57 0.71 0.53 0.23 0.22 0.19 0.24 0.12 0.03 0.04 0.04 0.03
0.51 0.81 1.18 1.39 1.24 1.16 1.56 1.36 1.08 0.99 1.37 1.39 1.07 1.56 0.88 0.37 0.37 0.28 0.26 0.18 0.25 0.54 0.62 0.42 0.27 0.17 0.18 0.13 0.03 0.01 0.02 0.03
0.68 1.07 1.34 1.40 2.09 1.91 1.69 1.03 0.87 0.84 1.13 1.14 0.99 1.16 1.28 0.79 0.53 0.40 0.35 0.38 0.28 0.24 0.32 0.29 0.34 0.30 0.22 0.14 0.05 0.02 0.02 0.03
0.81 1.22 1.52 1.15 0.78 0.59 0.86 0.81 0.76 0.86 0.92 0.90 0.74 0.88 0.88 1.11 0.67 0.39 0.30 0.39 0.37 0.32 0.25 0.15 0.16 0.26 0.38 0.24 0.13 0.02 0.01 0.04
0.41 0.37 0.54 0.22 0.15 0.23 0.52 0.61 0.67 0.70 0.87 0.72 0.67 0.83 0.69 0.79 0.77 0.62 0.25 0.28 0.36 0.40 0.42 0.24 0.12 0.22 0.27 0.16 0.11 0.10 0.03 0.01
0.06 0.06 0.27 0.22 0.10 0.16 0.41 0.69 0.79 0.93 1.25 1.08 0.68 0.79 0.79 0.70 0.68 0.72 0.43 0.31 0.38 0.30 0.34 0.23 0.13 0.13 0.16 0.08 0.05 0.05 0.03 0.01
0.02 0.07 0.13 0.18 0.20 0.24 0.32 0.64 0.68 0.78 0.81 1.03 0.71 0.60 0.63 0.54 0.49 0.72 0.64 0.41 0.34 0.31 0.29 0.21 0.11 0.10 0.12 0.05 0.03 0.05 0.07 0.06
0.10 0.13 0.15 0.12 0.18 0.32 0.22 0.32 0.46 0.65 0.82 1.12 1.25 0.87 0.61 0.56 0.49 0.63 0.69 0.52 0.49 0.35 0.35 0.38 0.23 0.11 0.07 0.06 0.03 0.02 0.03 0.08
0.16 0.13 0.14 0.16 0.22 0.27 0.29 0.21 0.18 0.26 0.52 0.81 1.41 1.44 0.90 0.57 0.52 0.59 0.67 0.66 0.56 0.52 0.54 0.42 0.39 0.29 0.18 0.14 0.09 0.10 0.10 0.16
0.16 0.13 0.13 0.17 0.21 0.27 0.24 0.21 0.12 0.12 0.14 0.30 0.63 1.45 1.41 0.80 0.45 0.46 0.66 0.76 0.71 0.63 0.75 0.76 0.55 0.56 0.45 0.44 0.45 0.44 0.45 0.50
0.10 0.05 0.05 0.07 0.10 0.22 0.18 0.16 0.15 0.13 0.14 0.21 0.26 0.47 1.02 1.02 0.72 0.42 0.56 0.84 0.86 0.90 0.97 1.12 1.23 1.36 1.42 1.22 0.96 0.75 0.63 0.53